Regional Weather Roundup
Issued by NWS

Home | Current Version | Previous Version | Graphics & Text | Print | Product List | Glossary On
Versions: 1 2 3 4 5 6 7 8 9 10 11 12 13 14 15 16 17 18 19 20 21 22 23 24 25 26 27
000
ASUS45 KBOU 210407
RWRCO

WEATHER ROUNDUP FOR COLORADO
NATIONAL WEATHER SERVICE DENVER/BOULDER CO
1000 PM MDT THU JUL 20 2017

NOTE: "FAIR" INDICATES FEW OR NO CLOUDS BELOW 12000 FEET WITH NO
SIGNIFICANT WEATHER AND/OR OBSTRUCTIONS TO VISIBILITY.

COZ001>005-013-030-031-210500-
...NORTHWEST COLORADO...

CITY           SKY/WX    TMP DP  RH WIND       PRES   REMARKS
CRAIG          FAIR      73  43  33 W10       30.22R
HAYDEN         FAIR     N/A N/A N/A NE9       30.23S
MEEKER         MOCLDY    68  56  65 CALM      30.28R
RABBIT EARS PA CLOUDY    54  43  66 CALM      30.59S
STEAMBOAT SPGS FAIR      70  47  44 E9        30.28S
WALDEN         FAIR      59  45  58 S9        30.40R
$$

COZ006>008-011-210500-
...WEST CENTRAL VALLEYS...

CITY           SKY/WX    TMP DP  RH WIND       PRES   REMARKS
GRAND JUNCTION FAIR      81  53  37 SW7       30.14R
MONTROSE       FAIR      74  52  46 SE20      30.22R
EAGLE          FAIR      67  53  61 E6        30.31R
RIFLE          FAIR      73  56  54 CALM      30.19R
DELTA          FAIR      81  49  32 E7G16     30.18R
NUCLA          FAIR      72  48  43 E10       30.26R
$$

COZ017>023-064>068-210500-
...SOUTHWEST COLORADO...

CITY           SKY/WX    TMP DP  RH WIND       PRES   REMARKS
DURANGO        MOCLDY    66  50  56 NW5       30.28R
CORTEZ         MOCLDY    69  56  62 W5        30.22R
PAGOSA SPRINGS FAIR      64  50  61 S3        30.37R
TELLURIDE      MOCLDY    56  53  91 SE8       30.50S
WOLF CREEK PAS NOT AVBL
$$

COZ009-010-012-014-032>034-037-058>063-210500-
...CENTRAL COLORADO...

CITY           SKY/WX    TMP DP  RH WIND       PRES   REMARKS
ASPEN          FAIR      58  53  84 CALM      30.38R
BUENA VISTA    FAIR      61  50  68 SW6       30.39R
COPPER MTN     FAIR      54  41  62 W8        30.72S
BERTHOUD PASS  FAIR      45  32  61 W13       30.74F
COTTONWOOD PAS FAIR      63  43  48 SW6       30.54R
GUNNISON       FAIR      63  48  58 N7        30.38R
KREMMLING      FAIR      64  54  68 CALM      30.38S
LEADVILLE      FAIR      50  46  86 N3        30.53R
MONARCH PASS   FAIR      54  37  54 S3        30.80R
SALIDA         FAIR      72  45  38 NW6       30.42R
SUNLIGHT       CLOUDY    52  41  66 E6        30.63R
WILKERSON PASS MOCLDY    54  41  62 SW3       30.67S
$$

COZ069>075-210500-
...SAN LUIS VALLEY/SANGRE DE CRISTO MOUNTAINS...

CITY           SKY/WX    TMP DP  RH WIND       PRES   REMARKS
ALAMOSA        MOCLDY    68  52  56 N3        30.32R
DEL NORTE      FAIR      65  50  58 W10       30.38S
LA VETA PASS   NOT AVBL
SAGUACHE         N/A    N/A N/A N/A MISG        N/A
$$

COZ035-036-038>040-210500-
...NORTHERN COLORADO FRONT RANGE...

CITY           SKY/WX    TMP DP  RH WIND       PRES   REMARKS
DENVER INTL AP MOCLDY    76  51  41 SW13      30.13S
DMNS CITY PARK   N/A     69  57  65 E9        30.14S
AURORA         MOCLDY    73  53  51 SW9       30.18R
FRONT RANGE AP FAIR      77  54  44 SW12      30.16R
ERIE MUNI ARPT FAIR      79  44  29 SW3       30.11F
BOULDER MUN AP FAIR      81  45  28 SW15G21   30.12F
CENTENNIAL     MOCLDY    72  53  51 SW6       30.19R
BROOMFIELD     FAIR      79  45  29 N3        30.17S
FORT COLLINS   LGT RAIN  79  53  40 SW3       30.11S
LONGMONT       FAIR      83  46  28 S5        30.12S
$$

COZ041-046-047-076>085-087-088-210500-
...PIKES PEAK/PALMER DIVIDE AND SOUTHERN FOOTHILLS...

CITY           SKY/WX    TMP DP  RH WIND       PRES   REMARKS
COLO. SPRINGS  FAIR      77  53  43 NW12      30.21R
A. F. ACADEMY  MOCLDY    70  53  53 NW7       30.24R
SCHRIEVER AFB  FAIR      73  51  46 N13       30.21R
CHEYENNE MTN   FAIR      75  43  31 NW12      30.22R
ELLICOTT       FAIR     N/A N/A N/A N8        30.19R
FALCON           N/A     72  47  41 N9        30.28R
FORT CARSON    FAIR      74  53  46 N13       30.16S
LIMON          FAIR      68  60  75 NE10      30.13F
MONUMENT HILL  FAIR      63  55  77 W5        30.31R
CANON CITY     MOCLDY    73  57  56 W7        30.15R
WALSENBURG     FAIR      75  46  35 W3        30.18S
TRINIDAD       FAIR      79  43  27 S9        30.14R
$$

COZ042>045-048>051-090-091-210500-
...NORTHEAST COLORADO...

CITY           SKY/WX    TMP DP  RH WIND       PRES   REMARKS
GREELEY ARPT   FAIR      81  54  39 VRB5      30.09S
AKRON          FAIR      81  59  47 S7        30.08R
BURLINGTON     FAIR      76  65  68 S8        30.02R
WRAY           NOT AVBL
YUMA           FAIR      77  57  50 CALM      30.02R
STERLING       FAIR      77  68  73 CALM      30.00R
HOLYOKE        FAIR      79  66  65 N5        29.97S
FORT MORGAN    FAIR      77  55  46 NW5       30.08R
$$

COZ086-089-092>099-210500-
...SOUTHEAST COLORADO...

CITY           SKY/WX    TMP DP  RH WIND       PRES   REMARKS
PUEBLO         FAIR      82  54  37 N16       30.05R
LA JUNTA       FAIR      81  61  50 E7        30.02R
LAMAR          FAIR      83  53  35 S14       29.96R
SPRINGFIELD      N/A     73  54  51 S13       30.06R
$$




USA.gov is the U.S. government's official web portal to all federal, state and local government web resources and services.